World > North America > United States > Iowa > Beaman  

Beaman, IA Hourly Weather Updates

Feedback E-mail the Weather

Quick Clicks

Beaman, IA Weather Maps

°F °C°F °C
Beaman Weather Map
UTC Time: 6/22/2024, 15:39
Your Time:

Beaman, IA Regional Weather

Expires:202406221600;;470132
ASUS43 KDMX 221506
RWRIA 

WEATHER ROUNDUP FOR IOWA
NATIONAL WEATHER SERVICE DES MOINES IA
1000 AM CDT SAT JUN 22 2024

NOTE: "FAIR" INDICATES FEW OR NO CLOUDS BELOW 12,000 FEET WITH NO
SIGNIFICANT WEATHER AND/OR OBSTRUCTIONS TO VISIBILITY.

* - THESE STATIONS ARE NOT NWS STATIONS...THUS NOT UNDER NWS
QUALITY CONTROL.  THEY ALSO DO NOT REPORT WEATHER SUCH 
AS PRECIPITATION OR FOG.  


IAZ007>011-017>019-026>030-037>042-050>054-066-221600-
   NORTHEAST IOWA
  
CITY           SKY/WX    TMP DP  RH WIND       PRES   REMARKS
CEDAR RAPIDS   CLOUDY    79  71  76 SW8       29.87F HX  82  TC  26   
CHARLES CITY * CLOUDY    75  75 100 W8        29.85S TC  24           
CLINTON *      CLOUDY    81  70  69 SW15      29.89F HX  84  TC  27   
DECORAH *      CLOUDY    75  73  94 VRB7G13   29.83S TC  24           
DUBUQUE        CLOUDY    74  71  91 S13       29.87F TC  23           
MONTICELLO *   CLOUDY    77  73  88 S9G15     29.86F TC  25           
OELWEIN *      PTSUNNY   79  75  89 SW15      29.84F HX  82  TC  26   
WATERLOO       PTSUNNY   81  73  76 SW12      29.82F HX  86  TC  27   
$$
 

SKY/WX - Weather  TMP - Temperature  DP - Dew Point  RH - Humidity
WIND - Wind Direction/Speed PRES - Barometric Pressure VSB - Visibility
WCI - Wind Chill Index E13G22 Wind - East Wind 13 mph/Gusts of 22 mph

Trending Headlines

Trending Entertainment Headlines

Beaman Radar Loop

Use the map search tool if you want to place a location marker on the radar map...

Beaman Quick Facts

National Two Day Weather Forecast


E-mail the Beaman Weather Forecast

Voice your opinion or tell us about page issues...